Location: Noordwijk
(52.2400°N, 4.4500°E)
Time: 12:39:47
(UTC+00:00)

RS-44 - Visible Passes

Search period start: 08 December 2022 00:00
Search period end: 18 December 2022 00:00
Orbit: 1175 x 1509 km, 82.5° (Epoch: 07 December)

Date Brightness Start Highest point End Pass type
(mag) Time Alt. Az. Time Alt. Az. Time Alt. Az.
08 Dec ? 00:04:56 10° NE 00:04:56 10° NE 00:05:16 10° NE visible
08 Dec ? 01:57:33 32° NE 01:57:33 32° NE 02:02:09 10° NNE visible
08 Dec ? 03:50:10 39° NNW 03:50:10 39° NNW 03:55:55 10° N visible
08 Dec ? 05:42:47 17° NW 05:43:17 17° NW 05:48:41 10° N visible
09 Dec ? 00:28:56 15° NE 00:28:56 15° NE 00:31:00 10° NNE visible
09 Dec ? 02:21:32 35° NNE 02:21:32 35° NNE 02:26:11 10° NNE visible
09 Dec ? 04:14:09 32° NNW 04:14:09 32° NNW 04:19:42 10° N visible
09 Dec ? 06:06:46 12° NW 06:08:16 13° NW 06:11:54 10° N visible
10 Dec ? 00:52:53 19° NE 00:52:53 19° NE 00:55:40 10° NNE visible
10 Dec ? 02:45:30 35° N 02:45:30 35° N 02:50:07 10° NNE visible
10 Dec ? 04:38:07 26° NNW 04:38:07 26° NNW 04:43:24 10° N visible
10 Dec ? 16:09:46 10° NW 16:12:02 11° WNW 16:14:18 10° WNW visible
11 Dec ? 01:16:49 22° NNE 01:16:49 22° NNE 01:19:58 10° NNE visible
11 Dec ? 03:09:26 34° N 03:09:26 34° N 03:13:59 10° N visible
11 Dec ? 05:02:03 20° NW 05:02:03 20° NW 05:07:00 10° N visible
12 Dec ? 01:40:44 25° NNE 01:40:44 25° NNE 01:44:06 10° NNE visible
12 Dec ? 03:33:20 30° NNW 03:33:20 30° NNW 03:37:48 10° N visible
12 Dec ? 05:25:57 16° NW 05:25:57 16° NW 05:30:28 10° N visible
13 Dec ? 00:12:01 13° NE 00:12:01 13° NE 00:13:11 10° NNE visible
13 Dec ? 02:04:36 27° NNE 02:04:36 27° NNE 02:08:06 10° NNE visible
13 Dec ? 03:57:13 26° NNW 03:57:13 26° NNW 04:01:33 10° N visible
13 Dec ? 05:49:49 12° NW 05:50:26 12° NNW 05:53:31 10° N visible
14 Dec ? 00:35:52 16° NNE 00:35:52 16° NNE 00:37:42 10° NNE visible
14 Dec ? 02:28:28 28° N 02:28:28 28° N 02:32:01 10° N visible
14 Dec ? 04:21:04 22° NNW 04:21:04 22° NNW 04:25:13 10° N visible
15 Dec ? 00:59:42 19° NNE 00:59:42 19° NNE 01:01:57 10° NNE visible
15 Dec ? 02:52:18 27° N 02:52:18 27° N 02:55:52 10° N visible
15 Dec ? 04:44:55 18° NNW 04:44:55 18° NNW 04:48:48 10° N visible
16 Dec ? 01:23:32 21° NNE 01:23:32 21° NNE 01:26:02 10° NNE visible
16 Dec ? 03:16:08 25° N 03:16:08 25° N 03:19:39 10° N visible
16 Dec ? 05:08:45 14° NNW 05:08:45 14° NNW 05:12:10 10° N visible
16 Dec ? 23:54:44 12° NNE 23:54:44 12° NNE 23:55:17 10° NNE visible
17 Dec ? 01:47:21 22° NNE 01:47:21 22° NNE 01:50:00 10° NNE visible
17 Dec ? 03:39:57 22° NNW 03:39:57 22° NNW 03:43:23 10° N visible
17 Dec ? 05:32:33 11° NNW 05:32:37 11° NNW 05:34:58 10° NNW visible
